Escanaba, MI

7:11 AM EST on February 09, 2016 (GMT -0500)
Delta County

Weather History for KESC - April, 2013

Change the Weather History Date:

Monday, April 1, 2013

  Actual Average Record
Temperature  
Mean Temperature 24 °F -  
Max Temperature 30 °F 39 °F 63 °F (1955)
Min Temperature 17 °F 25 °F 11 °F (1975)
Degree Days  
Heating Degree Days 42    
Moisture  
Dew Point 9 °F    
Average Humidity 55    
Maximum Humidity 74    
Minimum Humidity 34    
Precipitation  
Precipitation 0.00 in - - ()
Sea Level Pressure  
Sea Level Pressure 30.00 in    
Wind  
Wind Speed 11 mph (WNW)    
Max Wind Speed 18 mph    
Max Gust Speed 28 mph    
Visibility 9 miles    
Events      
Averages and records for this station are not official NWS values.
T = Trace of Precipitation, MM = Missing Value Source: NWS Daily Summary

Daily Weather History Graph

Daily Weather History Graph

Search for Another Location

Airport or City:

Trip Planner

Search our weather history database for the weather conditions in past years. The results will help you decide how hot, cold, wet, or windy it might be!

Date:

Astronomy

Apr. 01, 2013 Rise Set
Actual Time 7:27 AM EDT 8:17 PM EDT
Civil Twilight 6:57 AM EDT 8:47 PM EDT
Nautical Twilight 6:22 AM EDT 9:23 PM EDT
Astronomical Twilight 5:44 AM EDT 10:00 PM EDT
Moon 1:38 AM EDT (4/1) 11:00 AM EDT (4/1)
Length of Visible Light 13h 49m
Length of Day
12h 49m
Waning Gibbous, 67% of the Moon is Illuminated
Apr 1
Waning Gibbous
Apr 3
Last Quarter
Apr 10
New
Apr 18
First Quarter
Apr 25
Full

Hourly Weather History & Observations

Time (EDT) Temp. Windchill Dew Point Humidity Pressure Visibility Wind Dir Wind Speed Gust Speed Precip Events Conditions
12:15 AM 26.6 °F 15.7 °F 15.8 °F 64% 29.83 in 10.0 mi NNW 12.7 mph 17.3 mph N/A   Mostly Cloudy
12:35 AM 24.8 °F 14.6 °F 17.6 °F 74% 29.84 in 5.0 mi NNW 10.4 mph 16.1 mph N/A   Mostly Cloudy
1:15 AM 24.8 °F 16.9 °F 15.8 °F 69% 29.85 in 10.0 mi NW 6.9 mph - N/A   Scattered Clouds
1:35 AM 24.8 °F 15.3 °F 14.0 °F 64% 29.85 in 10.0 mi NW 9.2 mph - N/A   Mostly Cloudy
1:55 AM 24.8 °F 13.4 °F 12.2 °F 59% 29.86 in 10.0 mi NW 12.7 mph 17.3 mph N/A   Partly Cloudy
2:15 AM 24.8 °F 12.9 °F 12.2 °F 59% 29.87 in 10.0 mi NW 13.8 mph 17.3 mph N/A   Clear
2:35 AM 23.0 °F 13.1 °F 12.2 °F 63% 29.87 in 10.0 mi NW 9.2 mph 19.6 mph N/A   Clear
2:55 AM 23.0 °F 10.6 °F 10.4 °F 59% 29.87 in 10.0 mi NW 13.8 mph 20.7 mph N/A   Clear
3:15 AM 21.2 °F 10.9 °F 12.2 °F 68% 29.88 in 10.0 mi NW 9.2 mph 16.1 mph N/A   Clear
3:35 AM 21.2 °F 8.9 °F 10.4 °F 63% 29.88 in 10.0 mi NW 12.7 mph - N/A   Clear
3:55 AM 21.2 °F 9.5 °F 10.4 °F 63% 29.89 in 10.0 mi WNW 11.5 mph - N/A   Clear
4:15 AM 21.2 °F 8.9 °F 10.4 °F 63% 29.89 in 10.0 mi WNW 12.7 mph 18.4 mph N/A   Clear
4:35 AM 21.2 °F 9.5 °F 10.4 °F 63% 29.90 in 10.0 mi NW 11.5 mph 19.6 mph N/A   Clear
4:55 AM 21.2 °F 8.3 °F 8.6 °F 58% 29.90 in 10.0 mi NW 13.8 mph 18.4 mph N/A   Clear
5:15 AM 21.2 °F 9.5 °F 8.6 °F 58% 29.92 in 10.0 mi NW 11.5 mph 17.3 mph N/A   Clear
5:35 AM 21.2 °F 10.1 °F 6.8 °F 54% 29.92 in 10.0 mi NW 10.4 mph - N/A   Clear
5:55 AM 19.4 °F 8.6 °F 8.6 °F 63% 29.93 in 10.0 mi WNW 9.2 mph - N/A   Clear
6:15 AM 19.4 °F 8.6 °F 10.4 °F 68% 29.94 in 10.0 mi WNW 9.2 mph - N/A   Partly Cloudy
6:35 AM 19.4 °F 9.5 °F 8.6 °F 63% 29.95 in 10.0 mi WNW 8.1 mph - N/A   Clear
6:55 AM 17.6 °F 6.4 °F 10.4 °F 73% 29.96 in 10.0 mi WNW 9.2 mph - N/A   Clear
7:15 AM 17.6 °F 8.2 °F 8.6 °F 68% 29.97 in 10.0 mi WNW 6.9 mph - N/A   Clear
7:35 AM 17.6 °F 8.2 °F 8.6 °F 68% 29.98 in 10.0 mi WNW 6.9 mph - N/A   Clear
8:15 AM 17.6 °F 8.2 °F 8.6 °F 68% 29.99 in 10.0 mi West 6.9 mph - N/A   Scattered Clouds
8:35 AM 19.4 °F 8.6 °F 8.6 °F 63% 29.99 in 10.0 mi West 9.2 mph - N/A   Scattered Clouds
8:55 AM 19.4 °F 5.5 °F 8.6 °F 63% 30.00 in 10.0 mi West 15.0 mph - N/A   Partly Cloudy
9:15 AM 19.4 °F 6.6 °F 8.6 °F 63% 30.00 in 10.0 mi WNW 12.7 mph 16.1 mph N/A   Mostly Cloudy
9:35 AM 21.2 °F 10.1 °F 8.6 °F 58% 30.01 in 10.0 mi NW 10.4 mph - N/A   Partly Cloudy
9:55 AM 21.2 °F 9.5 °F 8.6 °F 58% 30.01 in 10.0 mi WNW 11.5 mph - N/A   Mostly Cloudy
10:15 AM 21.2 °F 8.9 °F 8.6 °F 58% 30.01 in 10.0 mi West 12.7 mph - N/A   Overcast
10:35 AM 21.2 °F 10.1 °F 8.6 °F 58% 30.02 in 10.0 mi West 10.4 mph 21.9 mph N/A   Overcast
10:55 AM 21.2 °F 8.9 °F 8.6 °F 58% 30.02 in 8.0 mi WNW 12.7 mph 18.4 mph N/A   Overcast
11:15 AM 21.2 °F 9.5 °F 10.4 °F 63% 30.02 in 4.0 mi NW 11.5 mph - N/A   Overcast
11:35 AM 23.0 °F 12.4 °F 10.4 °F 59% 30.02 in 6.0 mi West 10.4 mph 16.1 mph N/A   Mostly Cloudy
11:55 AM 24.8 °F 15.3 °F 10.4 °F 54% 30.02 in 10.0 mi WNW 9.2 mph 19.6 mph N/A   Overcast
12:15 PM 24.8 °F 11.9 °F 12.2 °F 59% 30.02 in 8.0 mi NW 16.1 mph 19.6 mph N/A   Overcast
12:35 PM 24.8 °F 13.4 °F 12.2 °F 59% 30.03 in 10.0 mi NW 12.7 mph 18.4 mph N/A   Overcast
12:55 PM 24.8 °F 16.9 °F 14.0 °F 64% 30.04 in 2.0 mi North 6.9 mph - N/A   Overcast
1:15 PM 23.0 °F 11.1 °F 14.0 °F 68% 30.04 in 0.5 mi NW 12.7 mph - N/A   Overcast
1:35 PM 26.6 °F 19.1 °F 12.2 °F 55% 30.03 in 8.0 mi North 6.9 mph - N/A   Mostly Cloudy
1:55 PM 26.6 °F 14.7 °F 14.0 °F 59% 30.03 in 4.0 mi NW 15.0 mph 20.7 mph N/A   Overcast
2:15 PM 26.6 °F 14.3 °F 10.4 °F 51% 30.02 in 10.0 mi WNW 16.1 mph 21.9 mph N/A   Mostly Cloudy
2:55 PM 28.4 °F 15.8 °F 6.8 °F 40% 30.01 in 10.0 mi WNW 18.4 mph 24.2 mph N/A   Overcast
3:15 PM 28.4 °F 18.0 °F 6.8 °F 40% 30.02 in 10.0 mi WNW 12.7 mph 20.7 mph N/A   Overcast
3:35 PM 28.4 °F 17.5 °F 6.8 °F 40% 30.02 in 10.0 mi WNW 13.8 mph - N/A   Overcast
3:55 PM 28.4 °F 17.5 °F 6.8 °F 40% 30.02 in 10.0 mi NW 13.8 mph - N/A   Overcast
4:15 PM 28.4 °F 18.0 °F 6.8 °F 40% 30.03 in 10.0 mi NW 12.7 mph 19.6 mph N/A   Mostly Cloudy
4:35 PM 28.4 °F 16.6 °F 5.0 °F 37% 30.03 in 10.0 mi NW 16.1 mph 23.0 mph N/A   Overcast
4:55 PM 30.2 °F 18.9 °F 6.8 °F 37% 30.02 in 10.0 mi WNW 16.1 mph 21.9 mph N/A   Mostly Cloudy
5:15 PM 30.2 °F 19.3 °F 6.8 °F 37% 30.03 in 10.0 mi NW 15.0 mph 21.9 mph N/A   Mostly Cloudy
5:55 PM 28.4 °F 16.6 °F 6.8 °F 40% 30.04 in 10.0 mi NNW 16.1 mph 27.6 mph N/A   Mostly Cloudy
6:15 PM 28.4 °F 16.6 °F 3.2 °F 34% 30.05 in 10.0 mi NW 16.1 mph 24.2 mph N/A   Partly Cloudy
6:35 PM 28.4 °F 16.2 °F 5.0 °F 37% 30.05 in 10.0 mi NW 17.3 mph 23.0 mph N/A   Partly Cloudy
6:55 PM 28.4 °F 17.5 °F 6.8 °F 40% 30.07 in 10.0 mi NNW 13.8 mph 21.9 mph N/A   Clear
7:15 PM 26.6 °F 15.2 °F 3.2 °F 37% 30.07 in 10.0 mi NW 13.8 mph 21.9 mph N/A   Clear
7:35 PM 26.6 °F 15.7 °F 3.2 °F 37% 30.08 in 10.0 mi NNW 12.7 mph 23.0 mph N/A   Clear
7:55 PM 26.6 °F 15.2 °F 3.2 °F 37% 30.08 in 10.0 mi NW 13.8 mph 19.6 mph N/A   Clear
8:15 PM 26.6 °F 17.5 °F 3.2 °F 37% 30.09 in 10.0 mi NW 9.2 mph - N/A   Clear
8:35 PM 24.8 °F 16.9 °F 3.2 °F 40% 30.09 in 10.0 mi NNW 6.9 mph - N/A   Clear
8:55 PM 24.8 °F 17.9 °F 3.2 °F 40% 30.09 in 10.0 mi NW 5.8 mph - N/A   Clear
9:15 PM 24.8 °F 19.1 °F 3.2 °F 40% 30.10 in 10.0 mi WNW 4.6 mph - N/A   Clear
9:35 PM 23.0 °F 17.0 °F 3.2 °F 43% 30.10 in 10.0 mi WNW 4.6 mph - N/A   Clear
9:55 PM 21.2 °F - 5.0 °F 50% 30.10 in 10.0 mi Calm Calm - N/A   Clear
10:15 PM 19.4 °F 14.3 °F 6.8 °F 58% 30.09 in 10.0 mi SW 3.5 mph - N/A   Clear
10:35 PM 19.4 °F 12.8 °F 6.8 °F 58% 30.09 in 10.0 mi WSW 4.6 mph - N/A   Clear
10:55 PM 17.6 °F 12.3 °F 6.8 °F 63% 30.09 in 10.0 mi WSW 3.5 mph - N/A   Clear
11:15 PM 17.6 °F 10.7 °F 6.8 °F 63% 30.09 in 10.0 mi WSW 4.6 mph - N/A   Clear
11:35 PM 17.6 °F 9.3 °F 6.8 °F 63% 30.08 in 10.0 mi WSW 5.8 mph - N/A   Clear
11:55 PM 17.6 °F 10.7 °F 6.8 °F 63% 30.08 in 10.0 mi West 4.6 mph - N/A   Clear